710  
NZUS99 KTBW 230817  
RWRTPA  
FLORIDA REGIONAL WEATHER ROUNDUP  
NATIONAL WEATHER SERVICE TAMPA BAY RUSKIN FL  
400 AM EDT THU MAR 23 2017  
 
NOTE: "FAIR" INDICATES FEW OR NO CLOUDS BELOW 12,000 FEET WITH NO  
SIGNIFICANT WEATHER AND/OR S TO VISIBILITY
.  
 
 
STATION/POSITION
 
 
 
FLZ042-048>051-055-056-060-061-230900-  
EXTRA STATIONS  
 
CITY SKY/WX TMP DP RH WIND PRES REMARKS
 
EVERGLADES CTY NOT AVBL  
CRYSTAL RIVER CLOUDY 64 63 94 CALM 30.17S  
EGLIN AFB FAIR 63 45 51 NE5 30.16F  
CANAVERAL MOCLDY 70 62 75 E5 30.11F  
 

 
FLZ001>010-012>015-230900-  
PANHANDLE FLORIDA  
 
CITY SKY/WX TMP DP RH WIND PRES REMARKS
 
PENSACOLA CLEAR 68 48 48 NE6 30.16S  
PENSACOLA NAS CLEAR 68 49 50 NE10 30.15S  
MILTON NAS LGT RAIN 63 44 50 NE7 30.17  
CRESTVIEW CLEAR 62 43 49 NE7 30.19F  
VALPARAISO PTCLDY 66 44 44 NE7 30.15F  
MARY ESTHER CLEAR 66 43 44 N8 30.14F  
PANAMA CITY FAIR 66 47 50 N9 30.14F  
TYNDALL AFB CLEAR 67 52 59 NE8 30.15S  
APALACHICOLA MOCLDY 68 65 90 E12G22 30.14F  
 
STATION/POSITION
 
 
29.2N 88.2W  
28.8N 86.0W  
28.5N 84.5W  
 

 
FLZ011-016>039-230900-  
NORTH FLORIDA  
 
CITY SKY/WX TMP DP RH WIND PRES REMARKS
 
MARIANNA PTCLDY 63 48 58 E5 30.18S  
TALLAHASSEE PTCLDY 66 51 58 E9 30.19S  
PERRY MOCLDY 63 53 69 NE6 30.20S  
CROSS CITY CLEAR 64 59 82 E5 30.18F  
GAINESVILLE PTCLDY 61 57 87 NE5 30.19S  
MAYPORT NAS MOCLDY 65 59 81 NE15 30.20F  
JACKSONVILLE MOCLDY 62 57 83 NE10 30.21S  
JAX NAS MOCLDY 66 57 72 NE13 30.20F  
JAX CRAIG PTCLDY 65 56 72 NE13 30.20F  
ST AUGUSTINE MOCLDY 67 62 84 N12 30.19F  
 
STATION/POSITION
 
 
KEATON BEACH  
31.4N 80.9W  
ST AUGUSTINE  
 

 
FLZ040-043>046-052-053-057-058-063-230900-  
CENTRAL FLORIDA  
 
CITY SKY/WX TMP DP RH WIND PRES REMARKS
 
OCALA MOCLDY 66 59 77 NE3 30.18S  
LEESBURG MOCLDY 67 62 84 NE7 30.17R  
SANFORD MOCLDY 68 64 87 N6 30.15F  
ORLANDO EXEC CLOUDY 70 64 81 N5 30.14F  
ORLANDO INTL MOCLDY 69 63 81 N5 30.14F  
KISSIMMEE CLOUDY 70 65 84 NE6 30.15F  
WINTER HAVEN PTCLDY 65 62 90 N3 30.15F  
LAKELAND CLOUDY 63 63 100 CALM 30.15F FOG  
BARTOW FAIR 64 64 100 CALM 30.14F  
 

 
FLZ041-047-054-059-064-230900-  
EAST CENTRAL FLORIDA  
 
CITY SKY/WX TMP DP RH WIND PRES REMARKS
 
DAYTONA BEACH PTCLDY 68 66 93 E7 30.15F  
JFK SPACE CTR PTCLDY 68 64 86 CALM 30.11F  
PATRICK AFB CLEAR 71 67 87 E7 30.12F  
MELBOURNE MOCLDY 73 65 75 NE9 30.12F  
VERO BEACH PTCLDY 71 66 84 NE7 30.12F  
FT PIERCE CLOUDY 71 67 87 E5 30.11F  
STUART CLEAR 68 63 83 CALM 30.12S  
 
STATION/POSITION
 
 

 
FLZ042-048>051-055-056-060-061-230900-  
WEST CENTRAL FLORIDA  
 
CITY SKY/WX TMP DP RH WIND PRES REMARKS
 
BROOKSVILLE CLOUDY 67 64 90 CALM 30.16F  
TAMPA PTCLDY 67 63 87 N3 30.15F  
MACDILL AFB CLEAR 64 64 99 NE3 30.14F  
ST PETERSBURG CLEAR 67 64 90 NE6 30.14F  
ST PET-WHITTED PTCLDY 68 65 90 N5 30.13S  
SARASOTA CLEAR 62 62 100 N5 30.12F  
 
STATION/POSITION
 
 
CEDAR KEY  
28.5N 84.5W  
VENICE  
 

 
FLZ062-065-066-069-070-075>078-230900-  
SOUTHWEST FLORIDA AND KEYS  
 
CITY SKY/WX TMP DP RH WIND PRES REMARKS
 
PUNTA GORDA CLEAR 65 63 93 N8 30.14F  
FT MYERS CLEAR 67 64 90 N5 30.11F  
SOUTHWEST INTL CLEAR 65 62 90 CALM 30.12S  
NAPLES CLEAR 67 65 93 NW6 30.12F  
MARATHON CLEAR 70 64 81 N7 30.11F  
KEY WEST NAS CLEAR 69 62 78 N8 30.12F  
KEY WEST INTL CLEAR 69 63 81 N9 30.12F  
 
STATION/POSITION
 
 
VENICE  
26.0N 85.6W  
SAND KEY  
LONG KEY  
MOLASSES REEF  
 

 
FLZ067-068-071>074-230900-  
SOUTHEAST FLORIDA  
 
CITY SKY/WX TMP DP RH WIND PRES REMARKS
 
W PALM BEACH PTCLDY 64 57 78 CALM 30.10F  
POMPANO BEACH CLEAR 66 59 78 W3 30.10F  
FT LAUDER-EXEC CLEAR 65 57 75 CALM 30.12S  
FT LAUDERDALE CLEAR 67 59 75 CALM 30.10F  
PEMBROKE PINES CLEAR 66 59 78 CALM 30.12F  
OPA LOCKA CLEAR 67 59 75 NW5 30.11F  
MIAMI CLEAR 67 60 78 CALM 30.11F  
WEST KENDALL CLEAR 60 56 86 W5 30.11F  
HOMESTEAD CLEAR 62 60 95 CALM 30.10F  
 
STATION/POSITION
 
 
LAKE WORTH  
FOWEY ROCKS  
SETTLEMENT POINT  
 

 
 
 
CLICK HERE TO GO TO PREVIOUS BULLETINS.

The Nexlab FL Page Main Text Page